www.pogodaiklimat.ru

Погода и климат >> Архив погоды >> Китай >> Ляонин >> Шэньян


ПОГОДА в Шэньяне

  • Прогноз погоды в Шэньяне
  • Монитор погоды в Шэньяне

АРХИВ ПОГОДЫ в Шэньяне

Время (UTC), дата Ветер
(напр.,м/с)
 
Видим.   Явления Облачность Т
(С)
Тd
(С)
f
(%)
Тe
(С)
Тes
(С)
Комфортность P
(гПа)
Po
(гПа)
Тmin
(С)
Tmax
(С)
R
(мм)
R24
(мм)
S
(см)
09 15.08 СВ 2 30 км 9/9 1000 м
[]
+26.0 +21.9 78 +33 +34 очень
душно
994.1 989.2
12 15.08 С 2 30 км 9/9 600 м
[]
+24.0 +21.3 85 +30 +30 очень
душно
993.6 987.9
15 15.08 С 3 30 км н/о +23.2 +20.9 87 +31 +31 очень
душно
993.1 988.2
18 15.08 З 2 30 км н/о +22.6 +20.9 90 +30 +30 очень
душно
992.8 987.2 +27.1
21 15.08 З 1 30 км н/о +22.4 +20.7 90 +29 +29 очень
душно
992.8 987.9
00 16.08 З 2 30 км 9/9 600 м
[]
+23.4 +20.2 82 +31 +31 очень
душно
993.2 987.6
03 16.08 С 3 30 км в посл. час ливневой дождь 9/9 600 м
[]
+25.2 +20.0 73 +31 +32 очень
душно
993.3 988.4
06 16.08 З 3 30 км {ливн. осадки} 9/9 600 м
[]
+28.1 +20.4 63 +35 +36 очень
душно
992.5 986.9 +22.3 0.0
09 16.08 С 2 30 км 8/8 1000 м
[]
+27.1 +20.0 65 +33 +34 очень
душно
992.1 987.3
12 16.08 СЗ 3 8000 м слаб. ливневой дождь 10/10 600 м
[]
+19.9 +18.6 92 +23 +23 комфорт 995.9 990.2 32
15 16.08 Ю 1 30 км н/о +19.6 +18.6 94 +23 +23 комфорт 995.4 990.4
18 16.08 ЮЗ 3 15 км ?/? +19.3 +18.3 94 +22 +22 комфорт 995.7 990.0 +29.0 7
21 16.08 ЮЗ 2 30 км н/о +18.6 +17.6 94 +20 +20 996.7 991.7
00 17.08 З 3 30 км 10/10 600 м
[]
+20.0 +18.1 89 +23 +23 комфорт 998.0 992.3 8
03 17.08 ЮЗ 3 30 км 10/10 600 м
[]
+22.6 +18.4 77 +28 +28 душно 998.7 993.7
06 17.08 З 2 30 км 9/9 600 м
[]
+24.6 +18.1 67 +29 +30 душно 998.6 992.9 +18.5
09 17.08 З 3 30 км 9/9 600 м
[]
+23.6 +17.6 69 +28 +28 душно 999.1 994.2
12 17.08 З 3 12 км слаб. ливневой дождь 10/10 600 м
[]
+18.9 +17.0 89 +20 +20 1001.6 995.8 3
15 17.08 Ю 1 18 км н/о +18.9 +18.1 95 +21 +21 комфорт 1002.4 997.4
18 17.08 Ю 1 10 км ?/? +18.6 +17.8 95 +21 +21 комфорт 1002.8 997.1 +25.2 0.6
21 17.08 ЮЗ 1 3600 м дымка н/о +17.9 +17.3 96 +19 +19 1003.7 998.6
00 18.08 Ю 2 21 км 3/3
[]
+21.2 +18.4 84 +25 +30 комфорт 1005.0 999.2 0.6
03 18.08 Ю 2 30 км 4/4 600 м
[]
+24.8 +16.8 61 +28 +38 жарко 1005.9 1001.0
06 18.08 Ю 2 30 км 9/9 600 м
[]
+25.6 +16.7 58 +29 +30 душно 1005.2 999.5 +17.8
09 18.08 Ю 2 30 км 4/4 600 м
[]
+26.2 +17.0 57 +30 +31 душно 1005.5 1000.6
12 18.08 ЮВ 1 21 км ясно +20.6 +18.5 88 +26 +26 душно 1006.7 1000.9
15 18.08 СВ 1 12 км н/о +18.9 +18.1 95 +21 +21 комфорт 1008.1 1003.0
18 18.08 штиль 0 8000 м н/о +17.5 +16.9 96 +17 +17 1008.5 1002.7 +26.5
21 18.08 штиль 0 4400 м дымка н/о +16.5 +15.9 96 +16 +16 1009.7 1004.6
00 19.08 Ю 1 25 км ясно +21.3 +18.1 82 +26 +33 душно 1010.9 1005.1
03 19.08 Ю 2 30 км ясно +27.5 +17.7 55 +32 +48 очень
душно
1011.0 1006.1
06 19.08 Ю 2 30 км ясно +29.7 +17.8 49 +34 +46 очень
душно
1009.7 1004.0 +16.5
09 19.08 Ю 1 30 км 3/3 1000 м
[]
+29.0 +17.8 51 +33 +35 очень
душно
1009.8 1004.9
12 19.08 штиль 0 26 км ясно +21.9 +19.5 86 +27 +27 душно 1010.5 1004.7
15 19.08 СВ 1 13 км н/о +20.2 +19.2 94 +25 +25 комфорт 1011.2 1006.1
18 19.08 В 1 17 км н/о +18.9 +17.9 94 +21 +21 комфорт 1010.8 1005.1 +30.5
21 19.08 СВ 1 10 км н/о +17.9 +17.1 95 +19 +19 1010.3 1005.2
00 20.08 В 1 30 км 9/9
[]
+21.5 +19.2 87 +26 +27 душно 1010.3 1004.5
03 20.08 Ю 1 30 км 10/10 600 м
[]
+26.3 +20.2 69 +32 +32 очень
душно
1009.6 1004.7
06 20.08 В 1 30 км {дождь} 10/10 600 м
[]
+25.9 +22.2 80 +34 +34 очень
душно
1008.0 1002.2 +17.9
09 20.08 ЮВ 1 30 км 10/10 600 м
[]
+26.0 +22.5 81 +34 +34 очень
душно
1006.8 1001.9
12 20.08 З 2 19 км слаб. ливневой дождь 10/10 600 м
[]
+23.6 +22.2 92 +31 +31 очень
душно
1007.3 1001.6 0.2
15 20.08 ЮЗ 1 н/о дымка н/о +22.1 +21.9 99 +29 +29 очень
душно
1005.8 1000.8
18 20.08 ЮЗ 2 30 км ?/? +21.7 +20.3 92 +27 +27 душно 1004.3 998.6 +27.0 0.9
21 20.08 ЮЗ 2 30 км н/о +22.2 +18.8 81 +28 +28 душно 1004.8 999.8
00 21.08 З 3 26 км 6/6
[]
+23.8 +20.1 80 +29 +31 душно 1005.9 1000.2 0.9
03 21.08 З 3 30 км 3/3
[]
+26.2 +15.3 51 +29 +38 жарко 1006.0 1001.1
06 21.08 З 5 30 км 4/4
[]
+27.4 +15.7 49 +30 +34 жарко 1005.2 999.5 +21.7
09 21.08 З 3 30 км 6/6 1000 м
[]
+27.5 +14.9 46 +30 +31 жарко 1005.5 1000.6
12 21.08 Ю 1 30 км 8/8 1000 м
[]
+23.0 +18.1 74 +29 +29 очень
душно
1006.6 1000.9
15 21.08 ЮЗ 2 30 км н/о +21.0 +17.6 81 +26 +26 душно 1006.6 1001.6
18 21.08 З 1 18 км н/о +18.5 +17.5 94 +20 +20 1006.1 1000.4 +28.1
21 21.08 ЮЗ 2 15 км н/о +18.8 +17.3 91 +21 +21 комфорт 1006.4 1001.3
00 22.08 З 2 16 км 3/3
[]
+22.6 +15.7 65 +27 +31 душно 1006.7 1001.0
03 22.08 З 5 30 км 3/3
[]
+27.2 +11.3 37 +28 +34 жарко 1005.8 1000.9

 

Местоположение метеостанции Шэньян (Ляонин, Китай): широта 41.73 долгота 123.51 высота над уровнем моря 43 м.

В архиве по умолчанию представлена погода в Шэньяне за последнюю неделю. Архивные данные за месяц целиком и за предыдущие месяцы, начиная с января 2011 года, Вы можете получить, выбрав интересующий диапазон дат из раскрывающегося списка и нажав кнопку "Ввод!".


*Определитесь, кто Вы:
робот инопланетянин человек

Внимание! Время в таблицах - всемирное. Для получения местного времени необходимо прибавить поправку, которая равна 8 ч.

Смотрите также архив погоды в соседних городах и на ближайших метеорологических станциях:

Погода в Бэньси (Ляонин, Китай) (51 км)
Погода в Чжанъу (Ганьсу, Китай) (112 км)
Погода в Цинъюане (Гуандун, Китай) (126 км)
Погода в Куаньдяне (Ляонин, Китай) (155 км)
Погода в Инкоу (Ляонин, Китай) (161 км)
Погода в Сыпине (Гирин, Китай) (175 км)
Погода на Плотине Сапунг (КНДР) (186 км)
Погода в Синыйджу (КНДР) (195 км)
Погода в Даньдуне (Ляонин, Китай) (199 км)
Погода в Цзиньчжоу (Ляонин, Китай) (211 км)

Пояснения к столбцам:

Ветер - указаны скорость ветра в м/с - средняя за 10 мин, порывы в срок и между сроками (в фигурных скобках) и направление, откуда дует ветер: С - северный, СВ - северо-восточный, В - восточный, ЮВ - юго-восточный, Ю - южный, ЮЗ - юго-западный, З - западный, СЗ - северо-западный.
Видимость - горизонтальная дальность видимости в метрах или километрах. При видимости от 1 до 10 км при отсутствии осадков обычно наблюдается дымка, при ухудшении видимости до 1 км и менее - туман. В сухую погоду видимость может ухудшаться дымом, пылью или мглою.
Явления - указаны атмосферные явления, наблюдавшиеся в срок или в последний час перед сроком; фигурными скобками обозначены явления, наблюдавшиеся между сроками (за 1-3 часа до срока); квадратными скобками обозначены град или гололедные отложения с указанием их диаметра в мм.
Облачность - указаны через наклонную черту общая и нижняя облачность в баллах и высота нижней границы облаков в метрах; квадратными скобками обозначены формы облаков: Ci - перистые, Cs - перисто-слоистые, Cc - перисто-кучевые, Ac - высококучевые, As - высокослоистые, Sc - слоисто-кучевые, Ns - слоисто-дождевые, Cu - кучевые, Cb - кучево-дождевые. Подробнее классификацию облаков см. в Атласе облаков (PDF).
T - Температура воздуха - температура, измеренная на высоте 2 м над землей.
Td - Температура точки росы - температура, при понижении до которой содержащийся в воздухе водяной пар достигнет насыщения.
f - Относительная влажность воздуха - влажноcть воздуха, измеренная на высоте 2 м над землей.
Te - Эффективная температура - температура, которую ощущает одетый по сезону человек в тени. Характеристика душности погоды. При расчете учитывается влияние влажности воздуха и скорости ветра на теплоощущения человека.
Tes - Эффективная температура на солнце - температура, которую ощущает человек, с поправкой на солнечный нагрев. Характеристика знойности погоды. Зависит от высоты солнца над горизонтом, облачности и скорости ветра. Ночью, в пасмурную погоду, а также при ветре 12 м/с и более поправка равна нулю.
P - Атмосферное давление - приведенное к уровню моря атмосферное давление.
Po - Атмосферное давление - измеренное на уровне метеостанции атмосферное давление.
Tmin - Минимальная температура - минимум температуры воздуха на высоте 2 м над землей.
Tmax - Максимальная температура - максимум температуры воздуха на высоте 2 м над землей.
R - Количество осадков - Количество выпавших осадков за период времени, мм. При наведении курсора мыши на число - период времени, за который выпало указанное количество осадков.
R24 - Количество осадков - Количество выпавших осадков за 24 часа, мм.
S - Снежный покров - Высота снежного покрова, см. При наведении курсора мыши на число - состояние снежного покрова и степень покрытия местности в баллах.